DW7902 Weather Reports


Display with metric or nautical units.
time (UTC)temp
F
wind
direction
speed
MPH
gust
MPH
rain 1hr
in
rain 24hr
in
rain mn
in
humidity
%
barometer
mb
20181021084857 55 162 0.0 0.0 0.00 0.00 0.00 67 1013.0
20181021084357 55 162 0.0 1.0 0.00 0.00 0.00 66 1012.9
20181021083854 56 162 0.0 1.0 0.00 0.00 0.00 64 1012.9
20181021083351 56 162 0.0 1.0 0.00 0.00 0.00 64 1012.9
20181021082848 56 162 0.0 1.0 0.00 0.00 0.00 64 1012.9
20181021082346 56 162 0.0 1.0 0.00 0.00 0.00 65 1012.9
20181021081905 56 162 1.0 1.0 0.00 0.00 0.00 64 1012.9
20181021081501 55 162 0.0 1.0 0.00 0.00 0.00 67 1013.0
20181021081400 56 162 0.0 1.0 0.00 0.00 0.00 66 1013.0
20181021080857 55 162 1.0 1.0 0.00 0.00 0.00 66 1013.0
20181021080355 55 162 0.0 1.0 0.00 0.00 0.00 68 1013.0
20181021080044 55 162 0.0 0.0 0.00 0.00 0.00 69 1012.9
20181021075930 55 162 0.0 0.0 0.00 0.00 0.00 69 1013.0
20181021075411 56 162 0.0 0.0 0.00 0.00 0.00 68 1013.0
20181021074913 56 162 0.0 1.0 0.00 0.00 0.00 68 1013.0
20181021074616 55 162 0.0 1.0 0.00 0.00 0.00 68 1012.9
20181021074432 56 162 0.0 2.0 0.00 0.00 0.00 67 1013.0
20181021073929 56 162 1.0 2.0 0.00 0.00 0.00 68 1012.9
20181021073427 56 162 1.0 1.0 0.00 0.00 0.00 67 1012.9
20181021073044 55 162 0.0 1.0 0.00 0.00 0.00 69 1012.8
20181021072923 56 162 0.0 1.0 0.00 0.00 0.00 69 1012.9
20181021072427 56 162 0.0 0.0 0.00 0.00 0.00 69 1013.0
20181021071926 56 162 0.0 1.0 0.00 0.00 0.00 69 1012.9
20181021071552 56 162 0.0 2.0 0.00 0.00 0.00 69 1012.9
20181021071422 56 162 0.0 3.0 0.00 0.00 0.00 69 1013.0
20181021070921 56 162 1.0 3.0 0.00 0.00 0.00 68 1013.0
20181021070420 57 162 2.0 2.0 0.00 0.00 0.00 66 1013.0
20181021070046 57 162 1.0 2.0 0.00 0.00 0.00 65 1012.9
20181021065918 57 162 1.0 2.0 0.00 0.00 0.00 64 1013.0
20181021065415 58 162 1.0 2.0 0.00 0.00 0.00 63 1012.9
20181021064914 58 162 0.0 2.0 0.00 0.00 0.00 61 1012.8
20181021064546 58 162 0.0 2.0 0.00 0.00 0.00 60 1012.8
20181021064413 58 162 1.0 1.0 0.00 0.00 0.00 60 1012.9
20181021063930 58 162 0.0 2.0 0.00 0.00 0.00 62 1012.9
20181021063426 58 162 0.0 2.0 0.00 0.00 0.00 63 1012.9
20181021063028 57 162 1.0 2.0 0.00 0.00 0.00 65 1012.8
20181021062922 58 162 1.0 2.0 0.00 0.00 0.00 66 1012.9
20181021062419 58 162 0.0 2.0 0.00 0.00 0.00 66 1012.9
20181021061914 58 162 0.0 2.0 0.00 0.00 0.00 66 1012.8
20181021061531 58 162 1.0 2.0 0.00 0.00 0.00 66 1012.8
20181021061410 58 162 2.0 2.0 0.00 0.00 0.00 65 1012.8
20181021060929 58 162 0.0 0.0 0.00 0.00 0.00 63 1012.8
20181021060427 58 162 0.0 0.0 0.00 0.00 0.00 64 1012.8
20181021060036 58 162 0.0 0.0 0.00 0.00 0.00 64 1012.8
20181021055923 58 162 0.0 0.0 0.00 0.00 0.00 64 1012.8
20181021055418 59 162 0.0 0.0 0.00 0.00 0.00 64 1012.8
20181021054933 59 162 0.0 0.0 0.00 0.00 0.00 64 1012.8
20181021054549 59 162 0.0 1.0 0.00 0.00 0.00 64 1012.7
20181021054428 59 162 0.0 1.0 0.00 0.00 0.00 64 1012.8
20181021053922 59 162 0.0 2.0 0.00 0.00 0.00 63 1012.8
20181021053419 59 162 1.0 2.0 0.00 0.00 0.00 63 1012.7
20181021053019 59 162 0.0 2.0 0.00 0.00 0.00 63 1012.6
20181021052915 59 162 0.0 1.0 0.00 0.00 0.00 64 1012.7
20181021052428 60 162 0.0 2.0 0.00 0.00 0.00 63 1012.6
20181021051923 60 162 0.0 2.0 0.00 0.00 0.00 63 1012.6
20181021051549 59 162 1.0 2.0 0.00 0.00 0.00 62 1012.6
20181021051421 60 162 1.0 2.0 0.00 0.00 0.00 62 1012.6
20181021050919 60 162 0.0 1.0 0.00 0.00 0.00 62 1012.6
20181021050414 60 162 0.0 1.0 0.00 0.00 0.00 61 1012.5
20181021050017 60 162 0.0 1.0 0.00 0.00 0.00 60 1012.4
20181021045910 61 162 0.0 0.0 0.00 0.00 0.00 61 1012.5
20181021045431 61 162 0.0 0.0 0.00 0.00 0.00 61 1012.5
20181021044930 61 161 0.0 0.0 0.00 0.00 0.00 60 1012.5
20181021044615 61 162 0.0 0.0 0.00 0.00 0.00 59 1012.4
20181021044424 61 162 0.0 0.0 0.00 0.00 0.00 60 1012.4
20181021043920 62 162 0.0 0.0 0.00 0.00 0.00 60 1012.4
20181021043420 62 162 0.0 0.0 0.00 0.00 0.00 60 1012.5
20181021043048 62 162 0.0 0.0 0.00 0.00 0.00 60 1012.3
20181021042915 62 162 0.0 1.0 0.00 0.00 0.00 60 1012.4
20181021042413 63 162 0.0 1.0 0.00 0.00 0.00 59 1012.4
20181021041912 63 162 1.0 1.0 0.00 0.00 0.00 57 1012.4
20181021041628 62 162 0.0 0.0 0.00 0.00 0.00 57 1012.3
20181021041432 63 162 0.0 0.0 0.00 0.00 0.00 58 1012.4
20181021040926 63 161 0.0 1.0 0.00 0.00 0.00 57 1012.4
20181021040423 63 161 1.0 1.0 0.00 0.00 0.00 56 1012.3
20181021040052 63 162 0.0 1.0 0.00 0.00 0.00 56 1012.3
20181021035917 64 162 1.0 1.0 0.00 0.00 0.00 56 1012.3
20181021035415 64 162 0.0 2.0 0.00 0.00 0.00 55 1012.3
20181021034916 64 162 0.0 2.0 0.00 0.00 0.00 55 1012.3
20181021034518 64 162 1.0 2.0 0.00 0.00 0.00 55 1012.2
20181021034412 64 162 1.0 2.0 0.00 0.00 0.00 56 1012.2
20181021033911 65 162 0.0 1.0 0.00 0.00 0.00 56 1012.2
20181021033432 65 162 0.0 1.0 0.00 0.00 0.00 55 1012.2
20181021033112 65 162 0.0 2.0 0.00 0.00 0.00 53 1012.1
20181021032925 65 162 0.0 2.0 0.00 0.00 0.00 54 1012.1
20181021032423 65 162 1.0 2.0 0.00 0.00 0.00 53 1012.1
20181021031922 66 161 1.0 2.0 0.00 0.00 0.00 53 1012.1
20181021031527 66 162 0.0 3.0 0.00 0.00 0.00 52 1012.0
20181021031421 66 162 1.0 3.0 0.00 0.00 0.00 51 1012.1
20181021030921 67 162 1.0 3.0 0.00 0.00 0.00 50 1012.1
20181021030418 67 162 1.0 2.0 0.00 0.00 0.00 48 1012.1
20181021030037 67 162 0.0 1.0 0.00 0.00 0.00 50 1012.0
20181021025912 68 162 0.0 1.0 0.00 0.00 0.00 49 1012.1
20181021025413 69 162 1.0 2.0 0.00 0.00 0.00 47 1012.1
20181021024914 69 162 1.0 2.0 0.00 0.00 0.00 46 1012.1
20181021024524 68 162 1.0 2.0 0.00 0.00 0.00 47 1012.0
20181021024413 68 162 1.0 2.0 0.00 0.00 0.00 47 1012.1
20181021023929 68 162 1.0 2.0 0.00 0.00 0.00 49 1012.1
20181021023426 68 162 1.0 3.0 0.00 0.00 0.00 53 1012.1
20181021023036 68 162 1.0 3.0 0.00 0.00 0.00 53 1012.0
20181021022923 69 162 2.0 3.0 0.00 0.00 0.00 52 1012.1
20181021022422 69 162 1.0 2.0 0.00 0.00 0.00 52 1012.1
20181021021922 70 162 1.0 2.0 0.00 0.00 0.00 50 1012.0
20181021021541 70 162 0.0 2.0 0.00 0.00 0.00 48 1011.9
20181021021423 71 162 0.0 1.0 0.00 0.00 0.00 47 1012.0
20181021020920 71 162 0.0 0.0 0.00 0.00 0.00 43 1011.9
20181021020416 72 162 0.0 0.0 0.00 0.00 0.00 43 1011.9
20181021020052 72 162 0.0 0.0 0.00 0.00 0.00 42 1011.8
20181021015918 72 162 0.0 0.0 0.00 0.00 0.00 42 1011.9
20181021015417 73 162 0.0 0.0 0.00 0.00 0.00 41 1011.9
20181021014916 74 162 0.0 0.0 0.00 0.00 0.00 40 1011.8
20181021014530 74 162 0.0 0.0 0.00 0.00 0.00 40 1011.8
20181021014415 74 162 0.0 0.0 0.00 0.00 0.00 39 1011.8
20181021013919 75 162 0.0 0.0 0.00 0.00 0.00 38 1011.8
20181021013415 76 162 0.0 0.0 0.00 0.00 0.00 38 1011.8
20181021013116 76 162 0.0 0.0 0.00 0.00 0.00 37 1011.7
20181021012928 76 162 0.0 0.0 0.00 0.00 0.00 37 1011.7
20181021012426 77 162 0.0 0.0 0.00 0.00 0.00 36 1011.7
20181021011925 79 162 0.0 0.0 0.00 0.00 0.00 35 1011.7
20181021011602 78 162 0.0 1.0 0.00 0.00 0.00 33 1011.6
20181021011420 79 162 0.0 1.0 0.00 0.00 0.00 33 1011.7
20181021010916 80 162 0.0 1.0 0.00 0.00 0.00 31 1011.7
20181021010435 80 162 0.0 2.0 0.00 0.00 0.00 31 1011.6
20181021010055 80 162 0.0 2.0 0.00 0.00 0.00 31 1011.5
20181021005927 81 162 1.0 2.0 0.00 0.00 0.00 30 1011.6
20181021005429 81 161 0.0 2.0 0.00 0.00 0.00 30 1011.6
20181021004926 82 162 1.0 2.0 0.00 0.00 0.00 28 1011.7
20181021004554 81 161 0.0 3.0 0.00 0.00 0.00 27 1011.5
20181021004425 82 161 1.0 3.0 0.00 0.00 0.00 27 1011.6
20181021003927 82 161 2.0 3.0 0.00 0.00 0.00 26 1011.6
20181021003425 83 161 2.0 4.0 0.00 0.00 0.00 25 1011.6
20181021003059 82 159 1.0 4.0 0.00 0.00 0.00 26 1011.5
20181021002922 83 159 2.0 4.0 0.00 0.00 0.00 26 1011.6
20181021002419 83 164 2.0 3.0 0.00 0.00 0.00 26 1011.6
20181021001919 83 164 1.0 3.0 0.00 0.00 0.00 26 1011.7
20181021001528 82 164 1.0 4.0 0.00 0.00 0.00 25 1011.7
20181021001418 83 164 1.0 4.0 0.00 0.00 0.00 26 1011.7
20181021000920 83 161 1.0 4.0 0.00 0.00 0.00 26 1011.7
20181021000416 83 189 3.0 4.0 0.00 0.00 0.00 25 1011.8
20181021000032 83 211 1.0 5.0 0.00 0.00 0.00 25 1011.8
20181020235912 83 211 3.0 5.0 0.00 0.00 0.00 25 1011.8
20181020235413 83 199 1.0 5.0 0.00 0.00 0.00 25 1011.8
20181020234931 83 198 1.0 6.0 0.00 0.00 0.00 24 1011.9
20181020234512 83 197 2.0 7.0 0.00 0.00 0.00 25 1011.8
20181020234409 83 197 2.0 7.0 0.00 0.00 0.00 24 1011.8
20181020233931 83 179 4.0 7.0 0.00 0.00 0.00 25 1011.9
20181020233410 83 201 4.0 6.0 0.00 0.00 0.00 26 1011.9
20181020233029 83 174 3.0 6.0 0.00 0.00 0.00 25 1011.9
20181020232911 83 207 4.0 6.0 0.00 0.00 0.00 25 1012.1
20181020232410 83 174 3.0 6.0 0.00 0.00 0.00 26 1012.0
20181020231908 83 200 4.0 6.0 0.00 0.00 0.00 24 1012.0
20181020231645 83 173 1.0 7.0 0.00 0.00 0.00 26 1012.0
20181020231430 83 159 2.0 7.0 0.00 0.00 0.00 26 1012.0
20181020230929 83 188 5.0 7.0 0.00 0.00 0.00 26 1012.1
20181020230428 83 174 4.0 9.0 0.00 0.00 0.00 26 1012.1
20181020230120 82 212 4.0 9.0 0.00 0.00 0.00 25 1012.1
20181020225926 83 219 5.0 9.0 0.00 0.00 0.00 25 1012.2
20181020225423 83 184 4.0 7.0 0.00 0.00 0.00 26 1012.2
20181020224921 83 199 6.0 7.0 0.00 0.00 0.00 25 1012.2
20181020224545 82 207 4.0 7.0 0.00 0.00 0.00 25 1012.2
20181020224419 83 208 5.0 7.0 0.00 0.00 0.00 25 1012.2
20181020223923 83 151 3.0 8.0 0.00 0.00 0.00 27 1012.2
20181020223423 82 181 4.0 8.0 0.00 0.00 0.00 27 1012.3
20181020223043 82 212 4.0 8.0 0.00 0.00 0.00 27 1012.2
20181020222921 82 132 4.0 8.0 0.00 0.00 0.00 27 1012.3
20181020222422 82 193 5.0 8.0 0.00 0.00 0.00 28 1012.4
20181020221923 82 196 3.0 7.0 0.00 0.00 0.00 28 1012.4
20181020221604 81 231 3.0 7.0 0.00 0.00 0.00 27 1012.4
20181020221427 82 227 4.0 7.0 0.00 0.00 0.00 27 1012.5
20181020220909 82 193 3.0 8.0 0.00 0.00 0.00 30 1012.6
20181020220432 81 214 3.0 8.0 0.00 0.00 0.00 29 1012.6
20181020220150 81 209 4.0 8.0 0.00 0.00 0.00 29 1012.6
20181020215926 82 192 6.0 8.0 0.00 0.00 0.00 28 1012.7
20181020215428 82 203 5.0 7.0 0.00 0.00 0.00 30 1012.7
20181020214907 81 160 3.0 7.0 0.00 0.00 0.00 29 1012.8
20181020214619 81 158 4.0 7.0 0.00 0.00 0.00 29 1012.8
20181020214430 81 156 4.0 7.0 0.00 0.00 0.00 30 1012.8
20181020213928 81 145 5.0 8.0 0.00 0.00 0.00 30 1012.8
20181020213429 81 164 5.0 8.0 0.00 0.00 0.00 29 1012.9
20181020213121 80 207 4.0 8.0 0.00 0.00 0.00 29 1012.9
20181020212927 80 161 4.0 8.0 0.00 0.00 0.00 30 1013.0
20181020212428 80 182 5.0 8.0 0.00 0.00 0.00 31 1013.0
20181020211928 80 220 5.0 8.0 0.00 0.00 0.00 31 1013.0
20181020211541 79 221 6.0 8.0 0.00 0.00 0.00 30 1013.1
20181020211430 80 216 5.0 10.0 0.00 0.00 0.00 31 1013.2
20181020210927 79 157 5.0 10.0 0.00 0.00 0.00 32 1013.2
20181020210425 79 157 4.0 9.0 0.00 0.00 0.00 32 1013.3
20181020210049 78 220 6.0 9.0 0.00 0.00 0.00 31 1013.2
20181020205924 79 223 7.0 9.0 0.00 0.00 0.00 31 1013.4
20181020205427 79 240 5.0 7.0 0.00 0.00 0.00 31 1013.5
20181020204907 79 222 4.0 8.0 0.00 0.00 0.00 33 1013.5
20181020204546 78 222 3.0 8.0 0.00 0.00 0.00 32 1013.6
20181020204430 79 154 5.0 8.0 0.00 0.00 0.00 32 1013.7
20181020203928 79 227 5.0 9.0 0.00 0.00 0.00 33 1013.8
20181020203427 79 216 7.0 9.0 0.00 0.00 0.00 32 1013.8
20181020203120 78 188 6.0 9.0 0.00 0.00 0.00 32 1013.9
20181020202927 79 207 5.0 9.0 0.00 0.00 0.00 32 1014.0
20181020202408 79 213 4.0 9.0 0.00 0.00 0.00 33 1014.0
20181020201910 78 197 7.0 10.0 0.00 0.00 0.00 33 1014.1
20181020201517 78 207 5.0 10.0 0.00 0.00 0.00 32 1014.1
20181020201414 79 212 4.0 10.0 0.00 0.00 0.00 32 1014.1
20181020200913 79 216 4.0 7.0 0.00 0.00 0.00 33 1014.2
20181020200417 78 174 4.0 7.0 0.00 0.00 0.00 33 1014.2
20181020200026 78 146 4.0 7.0 0.00 0.00 0.00 33 1014.3
20181020195915 78 225 3.0 6.0 0.00 0.00 0.00 34 1014.3
20181020195414 78 143 4.0 10.0 0.00 0.00 0.00 33 1014.5
20181020194915 77 204 6.0 10.0 0.00 0.00 0.00 33 1014.6
20181020194531 77 135 4.0 9.0 0.00 0.00 0.00 33 1014.6
20181020194416 77 126 6.0 9.0 0.00 0.00 0.00 33 1014.6
20181020193919 77 191 4.0 9.0 0.00 0.00 0.00 34 1014.7
20181020193418 77 172 4.0 8.0 0.00 0.00 0.00 33 1014.8
20181020193108 76 174 3.0 8.0 0.00 0.00 0.00 33 1014.8
20181020192913 77 141 3.0 9.0 0.00 0.00 0.00 34 1014.9
20181020192414 77 149 4.0 9.0 0.00 0.00 0.00 35 1014.9
20181020191916 77 176 4.0 6.0 0.00 0.00 0.00 34 1015.0
20181020191600 76 184 3.0 6.0 0.00 0.00 0.00 35 1015.0
20181020191417 76 191 4.0 6.0 0.00 0.00 0.00 33 1015.1
20181020190916 76 217 3.0 6.0 0.00 0.00 0.00 34 1015.2
20181020190414 76 195 3.0 7.0 0.00 0.00 0.00 33 1015.3
20181020185932 76 141 4.0 7.0 0.00 0.00 0.00 32 1015.3
20181020185408 76 202 3.0 7.0 0.00 0.00 0.00 33 1015.4
20181020184908 75 189 3.0 8.0 0.00 0.00 0.00 32 1015.5
20181020184521 75 180 5.0 8.0 0.00 0.00 0.00 33 1015.4
20181020184407 75 190 4.0 7.0 0.00 0.00 0.00 32 1015.5
20181020183909 75 157 3.0 0.0 0.00 0.00 0.00 32 1015.5
20181020183430 76 202 5.0 7.0 0.00 0.00 0.00 31 1015.6
20181020183102 75 213 1.0 4.0 0.00 0.00 0.00 32 1015.5
20181020182926 75 166 1.0 4.0 0.00 0.00 0.00 32 1015.7
20181020182428 75 169 3.0 4.0 0.00 0.00 0.00 31 1015.6
20181020181909 74 156 1.0 6.0 0.00 0.00 0.00 33 1015.6
20181020181549 73 202 3.0 6.0 0.00 0.00 0.00 33 1015.6
20181020181412 73 89 1.0 4.0 0.00 0.00 0.00 34 1015.6
20181020180913 73 55 1.0 3.0 0.00 0.00 0.00 36 1015.7
20181020180435 72 24 1.0 3.0 0.00 0.00 0.00 37 1015.8
20181020180048 71 22 1.0 3.0 0.00 0.00 0.00 37 1015.7
20181020175924 71 22 2.0 3.0 0.00 0.00 0.00 37 1015.8
20181020175424 71 16 1.0 3.0 0.00 0.00 0.00 37 1015.8
20181020174925 70 16 1.0 2.0 0.00 0.00 0.00 38 1016.0
20181020174508 69 16 0.0 3.0 0.00 0.00 0.00 39 1015.9
20181020174407 70 16 1.0 3.0 0.00 0.00 0.00 39 1016.0
20181020173911 69 16 1.0 2.0 0.00 0.00 0.00 40 1016.0
20181020173414 69 16 1.0 2.0 0.00 0.00 0.00 40 1016.1
20181020173024 68 16 0.0 3.0 0.00 0.00 0.00 41 1016.1
20181020172912 69 16 1.0 3.0 0.00 0.00 0.00 39 1016.1
20181020172411 68 16 2.0 3.0 0.00 0.00 0.00 40 1016.1
20181020171552 67 54 0.0 1.0 0.00 0.00 0.00 43 1016.0
20181020171410 68 54 0.0 2.0 0.00 0.00 0.00 44 1016.2
20181020170913 67 52 0.0 2.0 0.00 0.00 0.00 44 1016.2
20181020170412 67 55 1.0 2.0 0.00 0.00 0.00 46 1016.2
20181020170016 66 55 0.0 2.0 0.00 0.00 0.00 46 1016.2
20181020165910 66 55 0.0 1.0 0.00 0.00 0.00 46 1016.2
20181020165414 65 55 0.0 1.0 0.00 0.00 0.00 46 1016.3
20181020164912 64 55 0.0 2.0 0.00 0.00 0.00 47 1016.3
20181020164524 62 55 0.0 2.0 0.00 0.00 0.00 48 1016.3
20181020164412 63 55 0.0 2.0 0.00 0.00 0.00 49 1016.3
20181020163913 61 55 1.0 2.0 0.00 0.00 0.00 49 1016.4
20181020163413 61 55 1.0 2.0 0.00 0.00 0.00 53 1016.4
20181020163023 59 55 0.0 2.0 0.00 0.00 0.00 55 1016.3
20181020162911 60 55 1.0 2.0 0.00 0.00 0.00 56 1016.4
20181020161927 58 55 1.0 2.0 0.00 0.00 0.00 58 1016.4
20181020161512 57 55 0.0 2.0 0.00 0.00 0.00 59 1016.3
20181020161406 57 55 0.0 2.0 0.00 0.00 0.00 61 1016.4
20181020160910 56 55 1.0 3.0 0.00 0.00 0.00 59 1016.4
20181020160412 55 55 1.0 3.0 0.00 0.00 0.00 61 1016.4
20181020160121 54 55 0.0 3.0 0.00 0.00 0.00 64 1016.4
20181020155928 54 55 0.0 1.0 0.00 0.00 0.00 66 1016.5
20181020155424 52 55 0.0 1.0 0.00 0.00 0.00 67 1016.5
20181020154921 51 55 0.0 1.0 0.00 0.00 0.00 70 1016.5
20181020154531 50 55 0.0 1.0 0.00 0.00 0.00 72 1016.4
20181020154418 50 55 0.0 0.0 0.00 0.00 0.00 75 1016.5
20181020153915 49 55 0.0 0.0 0.00 0.00 0.00 75 1016.4
20181020153415 49 55 0.0 1.0 0.00 0.00 0.00 76 1016.4
20181020153112 48 55 0.0 1.0 0.00 0.00 0.00 78 1016.4
20181020152929 48 55 0.0 1.0 0.00 0.00 0.00 78 1016.4
20181020152428 48 55 0.0 1.0 0.00 0.00 0.00 79 1016.4
20181020151922 48 55 0.0 2.0 0.00 0.00 0.00 79 1016.4
20181020151543 47 53 0.0 2.0 0.00 0.00 0.00 77 1016.3
20181020151421 48 53 0.0 2.0 0.00 0.00 0.00 76 1016.4
20181020150414 47 53 1.0 2.0 0.00 0.00 0.00 75 1016.3
20181020150056 46 53 0.0 1.0 0.00 0.00 0.00 77 1016.2
20181020145930 47 53 0.0 0.0 0.00 0.00 0.00 77 1016.3
20181020145408 46 53 0.0 1.0 0.00 0.00 0.00 78 1016.2
20181020144909 46 53 0.0 1.0 0.00 0.00 0.00 78 1016.1
20181020144529 46 53 0.0 1.0 0.00 0.00 0.00 77 1016.1
20181020144411 46 53 0.0 1.0 0.00 0.00 0.00 77 1016.1
20181020143912 46 53 0.0 1.0 0.00 0.00 0.00 79 1016.1
20181020143413 46 53 0.0 2.0 0.00 0.00 0.00 81 1016.0
20181020143137 45 53 0.0 2.0 0.00 0.00 0.00 79 1015.9
20181020142927 46 53 0.0 2.0 0.00 0.00 0.00 80 1015.9
20181020142426 46 53 1.0 2.0 0.00 0.00 0.00 81 1016.0
20181020141927 46 53 1.0 2.0 0.00 0.00 0.00 81 1016.1
20181020141545 45 53 1.0 2.0 0.00 0.00 0.00 81 1016.0
20181020141426 46 53 1.0 2.0 0.00 0.00 0.00 82 1016.0
20181020140907 46 53 1.0 2.0 0.00 0.00 0.00 82 1016.1
20181020140430 46 53 1.0 2.0 0.00 0.00 0.00 82 1016.0
20181020140058 46 53 0.0 2.0 0.00 0.00 0.00 81 1016.0
20181020135926 47 53 0.0 2.0 0.00 0.00 0.00 81 1016.0
20181020135426 47 53 0.0 2.0 0.00 0.00 0.00 81 1016.1
20181020134925 47 53 1.0 2.0 0.00 0.00 0.00 81 1016.0
20181020134550 47 53 1.0 2.0 0.00 0.00 0.00 81 1016.0
20181020134426 47 53 1.0 2.0 0.00 0.00 0.00 80 1016.0
20181020133923 48 53 0.0 1.0 0.00 0.00 0.00 80 1015.9
20181020133417 48 53 0.0 1.0 0.00 0.00 0.00 80 1016.0
20181020133035 47 53 0.0 1.0 0.00 0.00 0.00 80 1015.9
20181020132912 48 53 1.0 1.0 0.00 0.00 0.00 80 1015.9
20181020132411 48 53 0.0 0.0 0.00 0.00 0.00 80 1015.9
20181020131910 48 53 0.0 0.0 0.00 0.00 0.00 80 1015.9
20181020131516 47 53 0.0 0.0 0.00 0.00 0.00 80 1015.7
20181020131412 48 53 0.0 0.0 0.00 0.00 0.00 80 1015.9
20181020130907 48 53 0.0 1.0 0.00 0.00 0.00 80 1015.9
20181020130427 48 53 0.0 2.0 0.00 0.00 0.00 80 1015.9
20181020130045 47 53 0.0 2.0 0.00 0.00 0.00 80 1015.8
20181020125923 48 53 1.0 2.0 0.00 0.00 0.00 80 1015.9
20181020125423 48 53 0.0 2.0 0.00 0.00 0.00 80 1015.9
20181020124923 48 53 0.0 0.0 0.00 0.00 0.00 80 1015.9
20181020124641 48 53 0.0 0.0 0.00 0.00 0.00 80 1015.8
20181020124424 48 53 0.0 0.0 0.00 0.00 0.00 80 1015.9
20181020123926 48 53 0.0 0.0 0.00 0.00 0.00 80 1015.9
20181020123424 48 53 0.0 0.0 0.00 0.00 0.00 80 1015.8
20181020123026 48 53 0.0 0.0 0.00 0.00 0.00 79 1015.7
20181020122921 48 53 0.0 0.0 0.00 0.00 0.00 79 1015.8
20181020122420 48 53 0.0 0.0 0.00 0.00 0.00 79 1015.8
20181020121921 48 53 0.0 1.0 0.00 0.00 0.00 79 1015.8
20181020121610 48 53 0.0 2.0 0.00 0.00 0.00 79 1015.7
20181020121420 49 53 0.0 2.0 0.00 0.00 0.00 79 1015.8
20181020120922 49 53 1.0 2.0 0.00 0.00 0.00 79 1015.7
20181020120420 49 53 1.0 1.0 0.00 0.00 0.00 79 1015.6
20181020120024 48 53 0.0 1.0 0.00 0.00 0.00 79 1015.6
20181020115914 49 53 0.0 2.0 0.00 0.00 0.00 79 1015.6
20181020115411 49 53 1.0 2.0 0.00 0.00 0.00 79 1015.6
20181020114911 49 53 1.0 2.0 0.00 0.00 0.00 78 1015.6
20181020114431 49 53 0.0 1.0 0.00 0.00 0.00 78 1015.6
20181020113926 49 53 0.0 3.0 0.00 0.00 0.00 78 1015.6
20181020113421 49 53 2.0 3.0 0.00 0.00 0.00 78 1015.6
20181020113054 49 53 0.0 2.0 0.00 0.00 0.00 78 1015.5
20181020112916 49 53 1.0 2.0 0.00 0.00 0.00 78 1015.6
20181020112414 49 53 1.0 2.0 0.00 0.00 0.00 79 1015.6
20181020111915 49 53 0.0 0.0 0.00 0.00 0.00 79 1015.6
20181020111528 49 53 0.0 0.0 0.00 0.00 0.00 79 1015.5
20181020111415 49 53 0.0 0.0 0.00 0.00 0.00 79 1015.6
20181020110915 49 53 0.0 0.0 0.00 0.00 0.00 79 1015.7
20181020110430 49 53 0.0 0.0 0.00 0.00 0.00 79 1015.6
20181020110030 49 53 0.0 0.0 0.00 0.00 0.00 79 1015.6
20181020105925 49 53 0.0 0.0 0.00 0.00 0.00 79 1015.6
20181020105422 49 53 0.0 0.0 0.00 0.00 0.00 78 1015.7
20181020104921 49 53 0.0 0.0 0.00 0.00 0.00 78 1015.7
20181020104556 49 53 0.0 0.0 0.00 0.00 0.00 77 1015.6
20181020104421 50 53 0.0 0.0 0.00 0.00 0.00 78 1015.6
20181020103918 50 53 0.0 1.0 0.00 0.00 0.00 77 1015.6
20181020103415 50 53 0.0 1.0 0.00 0.00 0.00 77 1015.6
20181020103030 49 53 0.0 1.0 0.00 0.00 0.00 77 1015.5
20181020102912 50 53 0.0 2.0 0.00 0.00 0.00 77 1015.6
20181020102411 50 53 1.0 2.0 0.00 0.00 0.00 77 1015.6
20181020101910 50 53 1.0 2.0 0.00 0.00 0.00 77 1015.6
20181020101515 49 53 0.0 2.0 0.00 0.00 0.00 77 1015.5
20181020101411 50 53 0.0 2.0 0.00 0.00 0.00 77 1015.6
20181020100911 50 53 0.0 2.0 0.00 0.00 0.00 75 1015.6
20181020100432 51 53 0.0 2.0 0.00 0.00 0.00 74 1015.6
20181020100028 50 53 0.0 2.0 0.00 0.00 0.00 74 1015.5
20181020095908 51 53 1.0 2.0 0.00 0.00 0.00 74 1015.6
20181020095411 51 53 0.0 1.0 0.00 0.00 0.00 73 1015.6
20181020094912 51 53 1.0 1.0 0.00 0.00 0.00 73 1015.6
20181020094513 51 53 0.0 0.0 0.00 0.00 0.00 72 1015.5
20181020094411 51 53 0.0 0.0 0.00 0.00 0.00 72 1015.6
20181020093910 51 53 0.0 0.0 0.00 0.00 0.00 72 1015.6
20181020093411 51 53 0.0 0.0 0.00 0.00 0.00 72 1015.6
20181020093032 51 53 0.0 0.0 0.00 0.00 0.00 73 1015.5
20181020092907 51 53 0.0 1.0 0.00 0.00 0.00 72 1015.6
20181020092426 52 53 0.0 1.0 0.00 0.00 0.00 73 1015.5
20181020091907 52 53 1.0 1.0 0.00 0.00 0.00 73 1015.6
20181020091428 52 53 0.0 2.0 0.00 0.00 0.00 72 1015.5
20181020090906 52 53 1.0 2.0 0.00 0.00 0.00 72 1015.5
20181020090428 52 53 0.0 0.0 0.00 0.00 0.00 71 1015.5
20181020090039 52 53 0.0 0.0 0.00 0.00 0.00 71 1015.4
20181020085924 52 53 0.0 0.0 0.00 0.00 0.00 71 1015.5
20181020085422 52 53 0.0 3.0 0.00 0.00 0.00 70 1015.4